Temp
-4 -3 -4 -3 -4 -12 -8 -3 -2 4 -3 1 1 1 1 -1 -3 -4 -3 -3 -5 -7 -7 -8 -9 -10 -11 -11 -11 -11 -11 -11 -11 -11 -11 -11 -11 -10 -11 -11 -11 -11 -10 -10
-9 -5 -7 -6 -5 -6 -7 -5 -4 -4 -4 -1 -1 -2 -3 -1 -3 -4 -3 -3 -6 -7 -8 -8 -10 -11 -10 -11 -11 -11 -11 -11 -9 -10 -10 -10 -11 -11 -11 -11 -11 -11 -11 -10
-3 -5 -4 -2 -6 -6 -9 -9 -6 -4 -0 -5 -2 -2 -0 -1 -2 -4 -3 -5 -7 -8 -8 -9 -10 -10 -10 -11 -11 -11 -11 -10 -9 -9 -9 -9 -9 -10 -10 -11 -11 -11 -11 -10
-5 -3 2 6 -10 -8 -5 -7 -7 -6 -2 -0 -1 -2 -1 -0 -2 -2 -4 -7 -8 -8 -9 -8 -9 -10 -10 -11 -11 -11 -10 -10 -9 -8 -8 -8 -8 -9 -9 -10 -11 -10 -11 -10
-5 -5 1 5 -6 -7 -4 2 -3 -5 -3 -2 -1 -6 -4 0 -2 -5 -6 -7 -8 -8 -8 -8 -9 -10 -10 -11 -12 -11 -11 -10 -8 -8 -8 -7 -7 -8 -9 -10 -10 -11 -11 -10
-6 -4 1 4 -4 -5 -6 4 -3 -3 -2 -2 -6 -1 1 -2 -3 -4 -5 -7 -8 -7 -8 -8 -9 -11 -10 -11 -12 -11 -11 -10 -8 -8 -8 -8 -8 -8 -9 -10 -10 -11 -11 -10
-6 -6 -3 -0 -4 -5 2 7 -0 -2 -0 -2 -6 -1 0 -2 -3 -4 -5 -7 -8 -8 -7 -8 -10 -11 -10 -12 -11 -11 -10 -9 -7 -8 -8 -9 -9 -10 -10 -10 -11 -11 -10 -10
-7 -5 -1 -3 -5 1 4 3 2 0 1 -1 -0 -1 -0 -2 -4 -5 -6 -7 -8 -8 -7 -8 -10 -11 -10 -11 -11 -10 -10 -7 -7 -7 -9 -9 -10 -10 -10 -10 -10 -10 -10 -10
-1 -1 2 -0 3 6 5 3 3 2 3 1 -1 -1 -2 -3 -5 -5 -6 -8 -8 -9 -8 -8 -10 -10 -11 -11 -11 -11 -9 -7 -6 -7 -8 -9 -9 -10 -10 -10 -10 -10 -9 -9
-1 5 2 4 6 5 5 4 5 4 3 1 0 -2 -3 -4 -5 -6 -7 -8 -9 -9 -9 -8 -10 -10 -10 -11 -11 -12 -9 -7 -6 -6 -7 -8 -8 -9 -9 -9 -9 -9 -9 -8
-1 3 4 6 7 5 3 2 2 2 2 1 -2 -3 -5 -5 -6 -7 -7 -8 -9 -9 -9 -9 -10 -9 -10 -10 -11 -11 -10 -8 -6 -6 -6 -7 -8 -8 -9 -9 -9 -9 -8 -8
3 6 5 4 4 3 1 -0 0 -0 -1 -0 -3 -4 -6 -6 -7 -8 -8 -9 -9 -9 -10 -9 -9 -9 -9 -11 -11 -11 -11 -9 -7 -6 -5 -6 -7 -7 -8 -8 -8 -8 -7 -7
3 4 3 3 3 2 1 0 -1 -1 -1 -2 -4 -5 -6 -6 -7 -8 -8 -9 -9 -9 -10 -9 -9 -9 -10 -10 -11 -11 -12 -10 -9 -5 -4 -5 -5 -6 -6 -7 -7 -7 -6 -5
2 2 0 2 1 1 -1 -1 -3 -3 -3 -4 -4 -6 -7 -7 -8 -9 -9 -9 -9 -9 -9 -9 -9 -9 -10 -11 -10 -10 -11 -10 -9 -7 -5 -4 -4 -4 -5 -5 -6 -5 -5 -4
2 0 0 2 3 1 -2 -3 -4 -5 -4 -4 -5 -6 -7 -7 -8 -9 -9 -9 -9 -9 -9 -8 -8 -9 -10 -11 -10 -10 -10 -10 -10 -7 -5 -4 -3 -4 -4 -4 -4 -4 -4 -3
2 3 3 1 1 1 -2 -4 -5 -5 -5 -5 -6 -7 -7 -8 -9 -9 -10 -9 -10 -10 -10 -8 -9 -11 -11 -11 -10 -11 -10 -10 -10 -7 -5 -4 -3 -3 -3 -3 -3 -3 -3 -2
-1 1 1 1 -0 -2 -3 -4 -5 -5 -6 -5 -6 -7 -7 -9 -9 -9 -9 -9 -10 -10 -10 -10 -9 -10 -11 -10 -10 -10 -10 -10 -10 -8 -6 -5 -4 -3 -3 -3 -3 -3 -2 -2
-0 0 -0 -2 -2 -3 -3 -3 -4 -6 -6 -7 -7 -7 -8 -9 -9 -9 -9 -9 -9 -8 -10 -9 -8 -11 -10 -11 -11 -10 -9 -10 -10 -10 -8 -7 -5 -4 -2 -2 -2 -1 -1 -1
-0 -1 -0 -1 -2 -3 -4 -3 -4 -6 -7 -7 -7 -8 -9 -9 -9 -9 -9 -10 -9 -8 -9 -9 -8 -10 -11 -10 -11 -10 -9 -9 -10 -10 -9 -7 -5 -4 -3 -1 -0 -0 0 0
-0 -1 -1 -1 -2 -3 -4 -5 -5 -6 -7 -7 -7 -8 -9 -9 -9 -9 -10 -10 -10 -10 -11 -9 -10 -11 -11 -10 -10 -10 -10 -9 -10 -10 -9 -8 -7 -5 -4 -3 -1 -1 0 0
-1 -1 -2 -2 -2 -3 -4 -4 -5 -6 -7 -7 -8 -9 -9 -9 -10 -10 -10 -9 -10 -10 -10 -9 -9 -12 -11 -11 -10 -10 -10 -10 -9 -10 -9 -9 -8 -7 -6 -4 -1 -0 0 1
-1 -2 -2 -3 -3 -4 -4 -4 -5 -6 -7 -7 -8 -9 -9 -10 -10 -10 -10 -10 -10 -11 -10 -9 -9 -12 -12 -11 -10 -10 -10 -10 -10 -10 -9 -9 -8 -8 -7 -5 -4 -2 -2 0
-2 -3 -3 -4 -5 -6 -6 -6 -6 -7 -7 -8 -8 -9 -9 -10 -10 -10 -9 -10 -10 -11 -10 -9 -9 -12 -11 -10 -10 -10 -10 -10 -10 -10 -9 -9 -9 -9 -8 -6 -6 -4 -3 -1
-3 -3 -4 -5 -6 -7 -7 -6 -7 -7 -8 -8 -8 -9 -10 -10 -10 -11 -10 -11 -11 -11 -10 -9 -9 -11 -11 -11 -10 -10 -10 -10 -10 -10 -9 -9 -9 -8 -8 -8 -6 -6 -4 -3
-3 -4 -4 -6 -7 -7 -7 -8 -8 -8 -8 -8 -9 -9 -10 -10 -10 -11 -10 -11 -11 -10 -10 -10 -10 -10 -11 -11 -11 -10 -10 -10 -10 -10 -9 -9 -9 -9 -8 -8 -7 -6 -5 -4
-4 -5 -5 -6 -7 -8 -9 -9 -8 -8 -8 -8 -9 -10 -10 -10 -10 -10 -10 -11 -11 -11 -10 -10 -10 -10 -11 -11 -11 -10 -10 -10 -10 -10 -9 -9 -9 -9 -9 -8 -7 -7 -6 -5
-6 -6 -6 -7 -8 -9 -9 -9 -8 -8 -7 -8 -9 -10 -10 -10 -10 -11 -11 -11 -11 -11 -10 -10 -10 -11 -11 -11 -11 -11 -10 -10 -10 -10 -9 -9 -9 -9 -9 -8 -8 -8 -7 -6
Height
1573 1563 1567 1564 1561 1581 1575 1551 1548 1475 1512 1470 1467 1465 1461 1455 1446 1441 1436 1432 1429 1422 1414 1408 1400 1391 1384 1376 1371 1365 1358 1352 1346 1342 1340 1339 1338 1338 1340 1343 1347 1350 1353 1357
1579 1555 1564 1559 1547 1548 1551 1546 1533 1514 1497 1471 1466 1466 1459 1452 1442 1436 1432 1427 1421 1414 1408 1400 1391 1381 1373 1367 1361 1355 1349 1341 1336 1331 1329 1327 1327 1328 1329 1333 1337 1342 1344 1347
1563 1552 1550 1537 1526 1527 1532 1525 1511 1507 1466 1463 1457 1458 1454 1446 1439 1431 1427 1423 1415 1409 1400 1393 1384 1375 1365 1359 1352 1345 1339 1332 1325 1320 1317 1315 1316 1317 1319 1323 1327 1330 1335 1339
1578 1552 1529 1482 1500 1501 1501 1498 1493 1481 1465 1461 1457 1452 1446 1440 1431 1424 1423 1417 1410 1401 1393 1387 1378 1369 1359 1351 1343 1336 1329 1322 1317 1313 1307 1305 1305 1306 1308 1312 1316 1320 1325 1331
1585 1569 1516 1475 1498 1501 1499 1455 1462 1471 1462 1457 1453 1447 1434 1428 1425 1421 1417 1410 1403 1395 1387 1380 1371 1361 1352 1343 1335 1328 1321 1314 1310 1305 1299 1295 1294 1296 1299 1302 1307 1311 1317 1322
1584 1571 1538 1481 1489 1491 1492 1463 1448 1451 1450 1447 1449 1439 1422 1422 1419 1414 1410 1404 1396 1389 1381 1374 1365 1355 1346 1336 1328 1320 1313 1306 1301 1298 1292 1287 1286 1287 1291 1295 1300 1305 1309 1315
1569 1576 1528 1479 1486 1490 1490 1454 1449 1448 1444 1443 1444 1433 1422 1416 1413 1409 1403 1397 1391 1385 1375 1368 1360 1349 1340 1331 1322 1314 1305 1299 1294 1290 1287 1283 1281 1283 1287 1291 1296 1299 1304 1310
1568 1562 1520 1476 1486 1486 1457 1450 1447 1442 1438 1432 1426 1421 1416 1410 1407 1403 1398 1392 1386 1379 1371 1363 1355 1345 1335 1325 1316 1307 1299 1293 1288 1285 1282 1280 1279 1281 1283 1287 1290 1294 1300 1303
1518 1499 1466 1467 1464 1463 1458 1449 1441 1436 1430 1425 1420 1415 1412 1407 1402 1398 1395 1389 1382 1375 1366 1359 1350 1343 1331 1321 1311 1302 1295 1289 1285 1282 1279 1277 1276 1278 1281 1284 1287 1291 1294 1298
1501 1464 1463 1464 1460 1456 1450 1442 1435 1431 1426 1419 1412 1410 1408 1403 1400 1394 1390 1384 1378 1370 1362 1354 1347 1339 1329 1317 1307 1299 1291 1285 1282 1279 1276 1274 1272 1273 1276 1278 1282 1285 1289 1293
1481 1471 1448 1454 1451 1445 1437 1435 1429 1425 1420 1414 1408 1406 1405 1402 1398 1392 1386 1381 1375 1367 1359 1351 1343 1334 1325 1314 1304 1296 1287 1282 1278 1276 1274 1272 1269 1268 1270 1273 1277 1280 1283 1288
1470 1460 1462 1443 1433 1434 1429 1424 1420 1415 1410 1406 1401 1400 1400 1399 1396 1390 1384 1379 1372 1365 1357 1349 1340 1331 1322 1312 1303 1294 1285 1278 1273 1271 1268 1267 1267 1266 1267 1270 1273 1276 1280 1285
1463 1454 1455 1448 1435 1429 1421 1414 1411 1409 1406 1402 1399 1394 1392 1389 1390 1386 1382 1376 1370 1362 1354 1346 1337 1330 1320 1310 1301 1292 1285 1277 1271 1267 1265 1264 1264 1265 1265 1269 1271 1273 1278 1282
1462 1455 1440 1441 1430 1420 1415 1407 1402 1398 1397 1396 1395 1393 1390 1386 1386 1383 1378 1374 1368 1361 1353 1344 1336 1328 1319 1309 1300 1291 1283 1276 1270 1265 1263 1261 1262 1262 1264 1266 1268 1270 1274 1279
1451 1451 1444 1430 1419 1413 1407 1400 1395 1393 1392 1390 1390 1389 1386 1383 1383 1381 1376 1372 1367 1359 1351 1343 1336 1327 1318 1309 1300 1290 1282 1274 1269 1263 1262 1260 1259 1262 1263 1266 1267 1269 1271 1276
1442 1440 1435 1429 1417 1408 1401 1398 1394 1390 1390 1389 1386 1385 1384 1381 1382 1379 1376 1371 1365 1357 1350 1341 1336 1329 1318 1309 1299 1292 1284 1275 1269 1263 1261 1260 1259 1261 1262 1264 1267 1268 1271 1275
1437 1430 1426 1418 1413 1403 1396 1392 1388 1386 1387 1386 1385 1383 1381 1382 1381 1378 1375 1371 1366 1360 1351 1343 1336 1328 1321 1310 1301 1293 1285 1276 1270 1264 1260 1260 1259 1259 1261 1263 1266 1268 1271 1274
1438 1431 1424 1416 1407 1400 1393 1387 1383 1382 1383 1386 1383 1382 1379 1380 1380 1377 1373 1369 1364 1359 1352 1344 1337 1331 1322 1313 1305 1297 1287 1278 1271 1265 1260 1258 1258 1257 1259 1263 1264 1268 1270 1273
1432 1425 1418 1411 1403 1395 1391 1385 1382 1381 1383 1386 1383 1381 1380 1380 1378 1376 1372 1369 1364 1356 1350 1344 1339 1333 1323 1316 1308 1300 1290 1281 1273 1268 1262 1258 1256 1256 1256 1258 1261 1263 1266 1269
1425 1419 1413 1405 1398 1391 1388 1384 1381 1382 1384 1384 1382 1381 1380 1379 1377 1375 1372 1369 1365 1359 1352 1347 1341 1333 1327 1319 1312 1303 1293 1285 1277 1270 1265 1261 1257 1254 1253 1253 1256 1259 1262 1264
1418 1411 1405 1398 1391 1389 1386 1384 1382 1382 1384 1382 1381 1381 1381 1379 1377 1374 1372 1369 1366 1359 1355 1350 1343 1336 1332 1323 1316 1307 1298 1289 1281 1275 1268 1264 1261 1257 1255 1253 1252 1252 1256 1260
1411 1406 1400 1392 1388 1387 1384 1382 1382 1382 1382 1381 1380 1380 1381 1379 1377 1374 1372 1370 1366 1361 1357 1351 1345 1341 1336 1328 1319 1311 1304 1295 1286 1280 1274 1270 1265 1262 1257 1255 1254 1254 1255 1256
1406 1402 1395 1388 1385 1384 1382 1380 1381 1381 1380 1379 1378 1379 1379 1379 1377 1375 1373 1371 1367 1363 1358 1352 1348 1344 1339 1332 1324 1316 1309 1302 1294 1288 1281 1276 1272 1267 1263 1258 1258 1258 1256 1256
1399 1396 1390 1383 1381 1379 1378 1379 1379 1379 1379 1378 1377 1378 1378 1377 1376 1375 1373 1371 1368 1364 1359 1354 1351 1348 1343 1336 1328 1321 1314 1307 1300 1296 1289 1283 1278 1272 1268 1265 1261 1261 1261 1260
1390 1388 1383 1378 1374 1372 1373 1375 1375 1376 1376 1376 1376 1376 1376 1376 1376 1375 1373 1371 1368 1364 1360 1355 1353 1350 1346 1340 1333 1326 1321 1312 1306 1302 1296 1290 1285 1280 1276 1273 1270 1265 1262 1261
1381 1379 1373 1369 1367 1365 1366 1368 1370 1372 1373 1373 1374 1374 1374 1375 1375 1374 1372 1371 1368 1365 1361 1357 1354 1351 1348 1344 1339 1332 1326 1320 1311 1307 1301 1295 1292 1288 1282 1275 1269 1266 1265 1263
1371 1369 1363 1360 1359 1357 1358 1362 1365 1367 1369 1369 1372 1372 1373 1374 1374 1373 1371 1370 1368 1365 1362 1359 1357 1353 1350 1347 1343 1337 1331 1326 1319 1313 1306 1299 1295 1290 1286 1282 1278 1274 1271 1268
Wind_Speed
13 20 11 15 13 10 13 10 9 31 12 25 24 24 35 40 40 39 42 41 42 45 45 46 46 44 41 38 35 33 34 34 36 34 33 31 30 31 31 31 34 34 35 37
7 10 8 13 12 20 21 20 21 29 35 31 46 35 28 35 36 38 44 40 43 44 45 46 47 44 41 39 36 33 34 34 31 32 30 30 29 29 30 32 35 35 36 35
7 2 9 7 9 14 6 9 7 10 20 2 8 10 23 32 43 41 42 39 43 43 44 46 47 42 41 39 36 34 33 31 30 32 32 30 28 29 31 32 35 36 35 36
6 11 2 6 2 3 14 9 22 15 17 22 22 22 39 42 43 35 31 39 40 41 44 45 44 40 38 37 34 34 32 30 27 25 29 27 28 30 30 31 35 36 35 36
3 4 11 11 3 5 5 17 19 20 20 26 28 25 31 13 15 25 32 35 36 38 42 44 42 39 39 37 35 33 33 30 25 22 26 27 30 30 30 31 34 36 33 33
2 4 5 5 3 6 6 11 8 20 13 13 3 13 13 19 33 33 32 34 35 36 40 41 40 38 38 37 36 36 34 30 22 21 21 18 23 30 28 31 32 30 30 33
9 3 12 17 8 7 3 13 2 13 15 10 6 16 32 37 35 31 32 34 34 36 39 40 38 38 38 37 36 35 34 27 22 20 14 11 11 19 24 28 26 27 29 31
3 5 11 11 12 7 5 17 25 25 36 29 33 34 33 32 29 30 33 33 33 37 39 40 37 37 37 36 36 34 33 24 25 16 10 7 8 14 20 22 23 26 28 28
12 9 2 16 25 39 47 47 51 43 41 34 33 35 29 31 28 29 32 33 34 37 39 40 38 37 37 37 37 38 28 21 19 11 8 6 7 14 17 20 23 26 28 29
3 13 28 29 47 42 40 42 46 40 33 32 33 28 26 28 27 28 30 32 35 37 39 42 40 38 36 38 37 37 27 19 16 13 9 9 7 12 16 20 24 27 27 28
13 26 40 21 26 45 48 44 42 39 36 37 26 23 25 26 25 26 28 30 33 36 39 41 41 40 39 39 39 37 28 21 14 12 15 11 12 13 17 21 24 27 27 27
14 33 27 43 56 56 54 50 48 40 39 31 22 17 22 23 23 25 27 30 32 34 37 39 39 40 41 40 40 35 33 24 15 15 18 19 13 12 17 18 21 20 23 23
34 44 35 52 65 49 43 49 46 37 31 24 17 18 19 19 19 21 23 27 30 33 35 38 39 40 42 42 41 36 33 23 18 13 11 12 16 15 14 17 20 22 21 21
38 44 44 28 39 53 44 40 37 31 22 20 16 21 18 16 17 17 21 25 27 30 33 37 38 40 42 44 41 37 31 20 18 14 8 7 7 8 10 18 20 18 22 23
17 25 37 47 46 44 38 33 31 27 22 18 18 20 16 15 15 16 18 22 25 28 32 35 37 40 43 46 41 40 31 24 22 13 8 9 7 6 10 11 14 17 17 22
34 31 33 34 41 42 38 31 28 24 19 17 17 15 13 13 13 15 17 20 24 28 31 34 36 39 43 44 41 40 30 23 20 13 8 7 5 7 7 10 13 18 19 21
27 31 38 41 39 39 35 26 23 20 18 16 16 12 11 11 11 13 15 18 20 22 27 32 34 38 41 41 39 38 31 27 22 16 8 4 3 11 9 8 11 18 17 18
22 30 33 33 36 36 33 25 21 16 16 15 13 10 8 9 11 14 16 19 21 23 28 30 32 36 39 39 38 35 30 28 27 22 15 9 2 3 11 11 13 17 18 16
29 34 36 35 32 30 26 22 19 10 14 14 10 7 7 8 10 12 15 18 21 26 30 32 33 35 40 37 35 32 30 29 29 26 21 14 8 2 6 13 15 13 16 14
36 36 35 33 30 27 23 18 7 10 13 11 7 6 6 6 9 10 13 15 18 22 27 28 30 35 38 36 34 30 29 29 30 29 26 21 16 9 3 5 10 11 14 14
38 38 37 34 31 23 14 5 6 9 11 8 6 6 5 5 8 10 13 16 18 21 24 26 28 34 35 33 31 30 30 30 30 30 29 26 21 16 11 8 4 7 12 16
43 41 38 33 27 18 9 8 9 10 10 8 6 5 5 5 6 9 12 15 18 21 24 25 27 28 30 30 29 29 29 30 31 30 29 28 25 22 17 12 7 3 6 11
40 38 37 31 24 17 15 13 11 12 10 8 6 6 4 5 6 8 10 13 16 19 21 24 25 26 28 28 30 30 30 30 32 31 29 28 26 24 22 16 12 8 4 8
39 37 35 29 22 19 18 15 13 13 11 9 8 7 4 4 5 8 10 12 14 17 20 22 23 24 26 28 31 31 30 31 33 31 30 28 27 25 23 21 15 11 7 5
37 36 34 28 23 21 19 18 16 17 14 11 10 7 5 4 4 5 7 10 12 14 17 20 21 22 24 27 30 31 31 32 33 31 32 32 31 28 25 22 20 16 11 6
39 35 32 28 23 20 23 21 20 18 15 14 12 9 6 5 4 5 6 8 11 13 15 18 20 21 22 24 25 29 32 33 36 33 33 35 33 31 29 27 25 22 17 12
36 32 31 28 23 21 22 21 22 19 17 15 12 9 7 5 5 4 5 7 9 11 14 16 18 19 20 22 24 25 28 30 34 35 35 37 35 33 33 31 29 25 21 17
Wind_Direction
261 267 252 264 245 185 204 208 217 270 229 271 288 301 301 304 302 310 321 325 325 327 331 331 331 330 326 321 318 317 311 305 300 295 284 275 266 261 255 247 246 243 239 237
274 254 238 255 244 223 228 242 253 258 279 271 272 283 287 303 304 310 316 320 324 328 331 332 332 332 328 324 321 321 314 307 305 300 289 275 262 254 250 243 241 238 235 233
268 240 277 273 220 191 196 216 190 211 243 20 293 288 300 302 300 303 312 318 325 329 331 334 333 333 328 323 325 322 317 314 312 312 297 277 263 252 242 235 236 233 231 227
283 328 340 252 85 164 203 220 215 265 270 276 285 289 297 294 294 301 307 319 325 330 331 335 335 334 327 328 327 326 321 319 317 309 301 281 263 249 240 230 231 230 227 227
281 253 299 286 196 159 166 299 226 225 253 263 284 306 291 292 287 310 315 322 327 332 332 336 337 337 331 331 332 328 325 319 314 304 300 281 264 248 237 224 226 228 225 223
256 232 276 248 176 161 147 293 194 192 235 247 286 309 315 306 314 318 321 327 330 332 333 339 341 339 335 336 331 332 328 321 313 300 300 279 262 245 230 222 224 221 221 221
241 300 270 260 181 146 51 305 230 231 266 268 220 268 301 304 302 314 322 327 332 334 335 343 343 342 339 338 337 333 333 324 318 294 301 289 254 230 216 216 214 216 216 217
119 215 277 156 136 175 279 311 310 300 298 287 295 296 301 304 307 318 323 328 334 335 338 345 347 347 343 343 342 339 333 331 338 291 295 261 240 217 216 212 211 213 213 211
189 222 269 206 268 293 297 295 300 295 301 300 297 294 303 305 312 319 325 330 334 337 340 344 350 350 346 347 349 342 333 330 342 299 277 251 226 214 209 209 208 207 209 207
25 246 263 283 291 293 305 302 307 303 296 292 293 291 301 303 313 321 327 331 334 339 340 343 349 352 353 352 351 340 334 329 341 289 273 251 232 213 211 211 208 206 206 206
266 281 291 286 303 312 310 307 305 304 301 300 287 286 304 305 314 322 327 330 336 339 341 344 346 353 356 357 354 343 339 331 318 333 271 257 242 221 214 217 211 208 207 210
267 281 285 296 303 308 305 305 308 302 299 293 276 287 302 304 315 322 328 331 334 340 343 345 348 352 356 358 356 349 342 333 332 313 332 247 239 228 220 226 217 215 202 214
259 283 286 291 300 310 308 308 311 305 300 280 276 296 292 300 316 323 327 329 337 342 344 345 351 353 357 357 357 354 344 335 334 327 319 289 241 230 220 212 217 208 211 211
282 289 298 301 302 314 314 314 309 299 283 269 273 296 289 306 317 324 330 332 337 343 346 349 351 354 357 359 356 357 348 348 347 338 330 320 262 205 225 202 214 221 207 195
323 310 302 313 317 321 320 315 307 295 278 265 279 283 288 309 318 330 335 335 339 346 351 353 354 354 357 355 358 358 352 356 351 345 330 326 200 205 218 201 206 200 202 200
319 319 326 321 323 324 322 317 304 298 274 269 279 276 292 311 322 333 338 339 345 352 355 357 357 355 358 354 358 356 357 7 0 359 335 351 168 201 217 218 204 203 201 213
319 322 330 327 325 320 315 311 304 295 271 267 274 275 296 314 323 331 342 346 351 355 3 3 356 359 356 357 360 354 -0 10 16 14 14 335 327 202 221 224 212 212 212 211
330 326 324 318 317 317 317 314 310 286 254 263 265 276 301 317 328 341 349 349 350 2 9 5 1 358 1 359 356 357 3 13 20 18 22 21 344 206 191 215 223 205 208 208
343 338 334 328 326 321 316 315 310 265 238 260 263 285 299 317 336 346 351 351 355 2 7 6 0 1 2 2 357 359 8 15 22 25 31 31 44 86 188 199 217 217 209 210
342 339 336 332 331 325 318 315 276 235 244 247 264 281 287 321 340 347 357 359 0 6 6 2 359 7 360 3 359 3 13 18 22 26 32 37 43 49 93 175 206 223 217 217
339 337 336 335 335 324 311 274 264 246 243 250 267 264 280 317 340 353 356 1 5 13 6 4 4 8 357 359 2 10 16 21 26 25 28 31 40 43 54 81 153 227 222 199
336 331 331 331 327 310 258 269 256 238 243 254 262 252 272 308 340 354 357 360 7 14 8 7 11 4 358 6 13 18 22 26 29 26 30 31 34 39 42 54 89 128 170 190
327 323 324 323 315 290 263 261 247 243 245 249 245 241 264 303 331 357 5 7 9 12 11 14 14 9 13 14 21 22 25 31 33 29 30 32 31 37 42 39 55 70 114 158
320 317 317 315 302 275 256 253 251 248 245 244 236 232 257 305 338 357 1 4 7 11 14 18 17 18 18 22 26 27 27 33 35 32 34 34 34 33 36 42 44 50 74 122
312 310 309 304 290 270 249 246 252 248 245 243 233 230 245 284 319 344 1 6 8 12 17 22 22 22 23 27 29 32 31 36 37 36 38 39 34 33 34 38 43 42 47 60
305 302 303 299 287 270 249 243 245 245 243 239 231 227 241 268 296 339 3 7 8 13 16 21 24 26 26 26 28 31 35 34 39 38 40 41 39 40 38 34 35 37 37 44
299 299 300 296 289 274 248 236 240 239 241 238 230 225 238 257 280 318 355 5 8 14 19 21 23 27 27 26 28 30 36 35 39 40 41 41 36 37 40 41 40 38 38 40